Regional Weather Roundup
Issued by NWS

Home | Current Version | Previous Version | Graphics & Text | Print | Product List | Glossary On
Versions: 1 2 3 4 5 6 7 8 9 10 11 12 13 14 15 16 17 18 19 20 21 22 23 24 25 26 27 28 29 30 31 32 33 34 35 36 37 38 39 40 41 42 43 44 45 46 47 48 49 50
000
ASUS44 KMEG 230910
RWRTN
TENNESSEE HOURLY STATE WEATHER ROUNDUP
NATIONAL WEATHER SERVICE MEMPHIS TN
400 AM CDT WED JUL 23 2014

TNZ002-004-019-021-049-052-054-088>092-231000-
WEST TENNESSEE

CITY           SKY/WX    TMP DP  RH WIND       PRES   REMARKS
MEMPHIS INTL   CLEAR     78  69  73 CALM      30.04F
NWS MEMPHIS      N/A     72 N/A N/A MISG        N/A
JACKSON        CLEAR     73  72  94 CALM      30.05S FOG
DYERSBURG      CLEAR     72  63  73 CALM      30.06R
UNION CITY     CLEAR     72  70  94 CALM      30.04S
PARIS          CLEAR     68  66  93 CALM      30.06S
LEXINGTON      MOCLDY    72  72 100 CALM      30.05S VSB 1/4
SAVANNAH       CLEAR     71  71 100 CALM      30.06F
$$

TNZ008-025-027-028-033-062-065-066-231000-
NORTH MIDDLE TENNESSEE

CITY           SKY/WX    TMP DP  RH WIND       PRES   REMARKS
NASHVILLE      CLEAR     74  71  91 CALM      30.07R
DICKSON        CLEAR     72  72 100 W5        30.07S
PORTLAND       CLEAR     73  70  88 CALM      30.06S
CLARKSVILLE    CLEAR     73  71  93 CALM      30.05S
LEBANON        CLEAR     74  70  87 CALM      30.05S
SMYRNA         CLEAR     73  73 100 CALM      30.07S
MURFREESBORO   CLEAR     74  70  87 CALM      30.07R
COOKEVILLE     CLOUDY    72  72 100 CALM      30.09S
GALLATIN       CLEAR     73  72  97 CALM      30.07S
CROSSVILLE     CLEAR     69  66  90 CALM      30.14R
$$

TNZ061-075-076-078-094-096-097-231000-
SOUTH MIDDLE TENNESSEE

CITY           SKY/WX    TMP DP  RH WIND       PRES   REMARKS
LEWISBURG      MOCLDY    74  72  93 CALM      30.07F
FAYETTEVILLE   CLEAR     70  68  94 CALM      30.09R
TULLAHOMA      CLEAR     70  66  88 CALM      30.11R
WINCHESTER     CLEAR     70  70 100 CALM      30.10S
MCMINNVILLE    MOCLDY    70  70 100 CALM      30.10R
COLUMBIA       MOCLDY    73  73 100 CALM      30.06S
SHELBYVILLE    CLEAR     72  72 100 CALM      30.09S
$$

TNZ017-018-042-046-047-231000-
NORTHEAST TENNESSEE

CITY           SKY/WX    TMP DP  RH WIND       PRES   REMARKS
TRI CITIES     CLEAR     67  65  93 CALM      30.12R
ELIZABETHTON   MOSUNNY   64  63  94 CALM      30.13S
$$

TNZ012-013-036-069-073-074-231000-
CENTRAL EAST TENNESSEE

CITY           SKY/WX    TMP DP  RH WIND       PRES   REMARKS
KNOXVILLE      MOCLDY    73  70  90 W5        30.08R
OAK RIDGE      CLOUDY    76  72  87 CALM      30.09S
GATLINBURG     CLOUDY    72  70  94 CALM      30.09S
MORRISTOWN       N/A     72  72 100 CALM      30.11S
$$

TNZ083-085-099-231000-
SOUTHEAST TENNESSEE

CITY           SKY/WX    TMP DP  RH WIND       PRES   REMARKS
CHATTANOOGA    PTCLDY    72  69  90 CALM      30.09R
$$

SKY/WX REPORTED AS FAIR MEANS FEW OR NO CLOUDS BELOW
12 THOUSAND FEET.




USA.gov is the U.S. government's official web portal to all federal, state and local government web resources and services.